Date,TemperatureHighF,TemperatureAvgF,TemperatureLowF,DewpointHighF,DewpointAvgF,DewpointLowF,HumidityHigh,HumidityAvg,HumidityLow,PressureMaxIn,PressureMinIn,WindSpeedMaxMPH,WindSpeedAvgMPH,GustSpeedMaxMPH,PrecipitationSumIn
2013-1-1,36.4,31.2,20.3,26.8,19.4,7.8,75,62,50,29.74,29.53,15,1,15,0.08
2013-1-2,29.4,20.6,13.0,16.4,9.8,3.3,77,63,53,29.91,29.71,13,1,13,0.00
2013-1-3,25.0,14.6,5.1,11.1,2.1,-3.9,73,58,34,29.94,29.80,7,0,0,0.00
2013-1-4,38.2,27.8,15.5,25.2,19.5,9.9,88,72,55,29.80,29.62,15,1,15,0.03
2013-1-5,40.9,32.0,23.9,26.1,22.3,19.9,86,68,48,30.07,29.66,11,1,13,0.05
2013-1-6,42.4,32.6,24.6,29.8,26.1,20.6,89,77,59,30.04,29.75,11,0,0,0.05
2013-1-7,38.2,31.4,25.0,30.1,24.2,18.3,92,76,49,30.21,29.77,12,1,12,0.01
2013-1-8,45.8,34.8,25.1,30.4,27.6,23.1,94,76,53,30.18,30.07,13,1,13,0.01
2013-1-9,43.4,35.8,24.7,36.2,29.6,22.8,94,79,58,30.21,29.79,12,1,14,0.00
2013-1-10,45.9,40.8,33.5,29.3,25.6,23.9,68,55,43,30.35,29.85,19,2,19,0.00
2013-1-11,40.1,34.2,26.4,35.7,28.6,22.8,95,80,65,30.33,30.03,4,0,0,0.11
2013-1-12,43.4,40.4,36.9,42.3,39.3,35.4,97,96,94,30.05,29.93,3,0,0,0.02
2013-1-13,51.7,46.1,41.3,49.7,45.0,40.5,97,96,92,30.01,29.81,7,0,0,0.01
2013-1-14,60.4,51.5,41.9,52.1,43.8,28.5,95,77,42,30.25,29.84,10,1,0,0.00
2013-1-15,41.9,38.0,34.2,29.7,26.6,24.2,74,63,55,30.32,30.20,6,0,0,0.00
2013-1-16,35.0,32.6,29.9,31.9,29.5,23.6,96,89,64,30.25,29.82,5,0,0,0.07
2013-1-17,40.6,34.4,29.8,34.2,28.3,14.4,96,79,53,30.10,29.83,10,1,12,0.21
2013-1-18,29.8,22.4,17.8,16.4,4.1,-2.6,59,45,32,30.46,30.06,14,2,14,0.00
2013-1-19,47.6,36.7,20.9,32.6,23.8,7.9,77,60,43,30.40,29.89,11,1,14,0.06
2013-1-20,53.2,41.0,28.7,33.1,26.6,11.0,77,57,34,29.92,29.54,23,2,24,0.00
2013-1-21,28.7,25.0,21.1,20.5,11.7,6.3,89,58,41,30.10,29.79,10,1,0,0.00
2013-1-22,24.6,20.1,12.9,20.3,9.2,0.6,92,64,39,30.08,29.75,11,1,15,0.00
2013-1-23,16.2,11.3,7.0,1.7,-4.2,-7.8,66,49,34,30.15,30.07,19,1,19,0.00
2013-1-24,20.2,11.0,2.9,-3.6,-6.1,-8.3,59,45,31,30.23,30.06,15,1,17,0.00
2013-1-25,24.1,16.1,8.2,13.6,-2.8,-8.1,86,43,26,30.31,30.07,10,1,3,0.00
2013-1-26,24.2,17.0,10.9,13.5,4.7,-3.6,87,61,34,30.24,30.01,11,1,13,0.00
2013-1-27,29.8,20.3,11.9,5.4,2.6,-1.2,67,47,30,30.47,30.23,13,1,13,0.00
2013-1-28,31.2,24.3,18.0,27.0,14.1,3.3,94,67,37,30.46,30.01,5,0,0,0.00
2013-1-29,33.9,30.3,25.9,32.0,28.1,23.8,95,92,87,30.20,30.01,4,0,0,0.13
2013-1-30,60.7,48.9,33.3,56.7,47.1,32.0,98,94,86,30.16,29.46,12,1,13,0.15
2013-1-31,59.7,47.6,31.2,57.9,37.9,17.0,95,71,41,29.59,28.96,19,3,23,0.49
2013-2-1,32.7,28.7,22.2,18.4,10.7,5.5,60,47,35,30.09,29.59,15,2,15,0.00
2013-2-2,30.5,24.5,17.6,13.6,8.7,3.3,61,51,40,30.26,30.05,8,1,0,0.00
2013-2-3,27.1,24.5,21.8,22.3,20.1,13.4,89,83,58,30.06,29.73,8,1,0,0.00
2013-2-4,29.7,24.3,20.4,21.4,13.1,8.6,90,63,42,29.95,29.72,14,1,15,0.00
2013-2-5,28.3,24.8,20.9,23.2,14.9,10.0,91,66,54,30.03,29.93,6,0,0,0.00
2013-2-6,38.0,29.9,24.6,26.7,20.1,6.5,92,69,43,30.30,29.92,10,1,0,0.03
2013-2-7,29.6,24.6,17.5,16.5,6.2,2.1,65,46,33,30.53,30.30,11,1,0,0.00
2013-2-8,32.7,28.8,17.7,31.1,25.3,15.7,96,87,64,30.49,29.60,14,2,16,0.03
2013-2-9,21.2,18.4,14.9,18.8,15.8,10.1,93,89,81,30.20,29.56,16,4,17,0.00
2013-2-10,38.0,22.3,8.0,26.1,14.9,4.7,87,74,45,30.41,30.20,7,0,0,0.07
2013-2-11,43.4,32.5,17.9,42.3,29.9,13.8,97,90,77,30.35,29.61,6,0,0,0.47
2013-2-12,43.4,38.1,30.8,38.1,30.2,25.7,97,74,56,29.88,29.61,16,1,18,0.03
2013-2-13,41.8,34.0,25.8,28.6,25.6,22.1,89,72,52,29.87,29.68,8,0,0,0.00
2013-2-14,44.7,35.8,30.0,28.7,24.2,21.5,84,64,42,30.00,29.71,8,1,0,0.00
2013-2-15,48.9,34.3,29.1,34.3,28.8,23.5,94,81,57,30.00,29.94,7,1,0,0.00
2013-2-16,37.9,35.2,30.3,31.8,26.7,19.6,94,71,57,29.94,29.71,11,1,0,0.03
2013-2-17,30.2,21.7,17.2,21.5,13.0,2.3,90,70,47,29.70,29.39,18,3,21,0.00
2013-2-18,32.2,22.5,14.4,6.3,3.5,1.2,57,44,29,30.16,29.68,17,2,19,0.00
2013-2-19,47.1,36.3,22.9,42.0,25.3,4.7,96,66,44,30.17,29.58,8,1,0,0.38
2013-2-20,41.2,32.1,26.0,39.9,21.6,11.9,95,66,45,29.78,29.52,15,2,20,0.01
2013-2-21,32.6,27.5,24.2,16.5,14.6,11.6,69,58,46,30.19,29.78,15,2,16,0.00
2013-2-22,39.7,31.4,23.6,25.9,21.8,16.4,80,68,47,30.39,30.19,8,1,0,0.00
2013-2-23,39.0,34.1,28.4,32.3,29.1,24.3,95,82,70,30.34,29.91,5,0,0,0.10
2013-2-24,36.9,33.9,30.8,35.9,32.6,29.5,96,95,94,29.91,29.69,9,1,0,0.54
2013-2-25,40.5,34.4,29.9,32.5,30.3,27.7,95,85,68,30.25,29.89,6,0,0,0.22
2013-2-26,44.4,35.8,26.5,34.2,29.6,25.0,96,79,55,30.34,30.16,8,1,0,0.01
2013-2-27,41.1,39.3,36.9,39.8,37.7,32.1,96,94,80,30.16,29.56,18,2,20,1.40
2013-2-28,46.2,37.9,33.6,39.1,35.1,32.6,96,90,74,29.65,29.52,4,0,0,0.00
2013-3-1,40.9,37.6,31.5,34.7,30.8,28.2,95,77,64,29.68,29.53,10,1,0,0.00
2013-3-2,42.9,37.3,31.7,30.4,28.0,26.0,81,69,58,29.68,29.62,9,1,0,0.00
2013-3-3,41.6,35.5,32.6,32.5,29.0,25.5,92,77,67,29.65,29.56,7,1,0,0.00
2013-3-4,39.6,34.2,29.4,28.1,25.0,21.6,81,69,55,29.75,29.58,14,2,15,0.00
2013-3-5,44.9,36.8,31.7,33.7,28.3,23.4,91,72,56,30.07,29.75,11,2,0,0.00
2013-3-6,39.8,36.8,34.2,35.4,33.2,30.3,93,87,69,30.11,30.04,18,2,18,0.17
2013-3-7,35.7,32.1,30.2,31.6,29.9,28.7,95,92,79,30.06,29.98,15,3,16,0.17
2013-3-8,38.7,32.6,29.3,32.4,28.9,24.5,96,87,62,30.15,29.94,13,2,14,0.08
2013-3-9,45.2,34.8,26.6,32.7,26.8,21.3,94,73,54,30.35,30.15,12,1,12,0.43
2013-3-10,43.4,33.8,24.5,32.8,29.2,23.0,96,84,64,30.42,30.32,5,0,0,0.00
2013-3-11,54.1,42.4,35.0,40.9,36.4,32.1,93,80,60,30.33,30.15,8,1,0,0.00
2013-3-12,56.9,49.0,41.1,52.9,46.8,39.5,97,92,79,30.17,29.73,10,1,12,0.39
2013-3-13,52.1,44.0,35.5,50.9,32.5,21.8,96,67,35,29.79,29.69,11,1,12,0.00
2013-3-14,36.4,31.7,23.0,25.6,16.7,7.7,70,54,42,29.84,29.71,14,1,14,0.00
2013-3-15,42.2,30.5,20.2,27.8,14.3,6.5,75,52,28,29.88,29.63,14,2,14,0.00
2013-3-16,40.2,34.0,28.1,27.6,16.2,7.2,77,50,28,29.88,29.67,10,1,0,0.00
2013-3-17,37.7,30.9,23.7,19.4,12.2,5.4,74,47,27,30.32,29.88,15,1,15,0.00
2013-3-18,39.6,28.7,18.5,26.6,11.1,1.7,91,49,28,30.47,30.25,7,1,0,0.00
2013-3-19,35.8,32.4,28.4,34.5,30.9,26.2,95,94,91,30.25,29.60,14,2,14,0.56
2013-3-20,39.1,30.9,24.2,26.4,22.4,19.6,94,72,48,29.82,29.70,15,1,15,0.33
2013-3-21,37.2,30.0,23.1,29.0,23.4,18.0,92,77,52,29.83,29.61,6,0,0,0.09
2013-3-22,41.1,33.5,27.4,27.5,21.3,16.9,91,62,42,29.75,29.61,11,1,12,0.05
2013-3-23,43.8,35.3,28.0,24.5,21.3,19.3,76,58,41,29.79,29.63,13,2,16,0.00
2013-3-24,47.4,38.2,30.4,29.7,24.3,20.8,77,58,42,29.82,29.73,10,1,0,0.00
2013-3-25,46.6,38.1,31.9,34.7,30.3,26.0,85,74,56,29.77,29.51,12,1,13,0.00
2013-3-26,51.3,40.9,35.2,31.1,26.1,20.8,79,57,33,29.78,29.53,9,1,0,0.00
2013-3-27,52.7,42.6,29.1,32.2,25.3,21.8,78,52,33,29.86,29.73,13,2,13,0.00
2013-3-28,47.8,42.0,36.7,35.9,33.6,30.1,90,73,52,30.02,29.86,8,1,0,0.00
2013-3-29,57.1,46.0,33.7,35.9,32.5,29.2,87,61,37,30.05,29.96,11,1,12,0.00
2013-3-30,58.2,46.7,36.4,33.6,25.5,16.1,77,48,21,30.10,30.00,10,1,12,0.00
2013-3-31,61.2,45.5,28.4,41.2,28.5,23.3,88,56,25,30.12,29.74,9,1,12,0.01
2013-4-1,63.3,47.3,35.0,49.3,38.0,13.7,95,73,40,29.79,29.50,14,1,15,0.13
2013-4-2,40.9,34.5,28.7,19.9,15.1,11.2,59,45,32,29.95,29.79,16,2,21,0.00
2013-4-3,46.9,37.1,29.9,20.4,14.9,11.4,64,41,25,30.16,29.93,19,2,20,0.00
2013-4-4,58.4,42.2,29.2,26.9,18.1,12.4,61,41,17,30.30,30.05,10,1,0,0.00
2013-4-5,60.9,46.1,37.0,31.9,27.7,21.3,74,52,23,30.06,29.62,11,1,13,0.00
2013-4-6,47.7,38.3,31.4,27.7,12.8,4.9,64,37,19,30.34,29.88,15,2,19,0.00
2013-4-7,55.2,42.1,27.5,40.4,28.6,16.8,82,60,34,30.34,30.00,14,1,14,0.00
2013-4-8,66.7,52.6,41.8,43.5,40.4,34.6,94,67,33,30.09,29.95,10,1,0,0.00
2013-4-9,72.7,56.0,46.1,54.0,44.7,39.1,95,69,39,30.09,29.85,14,1,14,0.07
2013-4-10,64.5,52.4,45.9,49.6,45.9,41.8,93,79,56,30.02,29.85,8,0,0,0.18
2013-4-11,53.0,47.4,42.3,48.0,41.5,28.3,95,81,51,30.14,29.82,6,0,0,0.09
2013-4-12,42.6,39.2,37.3,38.3,35.7,31.6,95,88,70,30.17,29.78,18,2,18,0.50
2013-4-13,53.1,43.5,35.6,40.8,37.1,33.8,95,80,53,29.93,29.75,11,1,13,0.03
2013-4-14,51.7,45.4,37.7,41.0,33.8,27.3,92,66,42,30.22,29.91,11,1,0,0.01
2013-4-15,57.9,45.3,31.4,40.0,33.9,28.1,89,66,40,30.39,30.22,9,1,0,0.00
2013-4-16,65.0,52.1,37.8,50.7,42.5,35.8,94,72,49,30.41,30.05,11,2,12,0.00
2013-4-17,69.0,58.9,49.3,52.4,38.2,28.5,86,50,25,30.33,30.05,11,2,12,0.00
2013-4-18,67.0,52.7,38.9,44.7,35.5,29.8,84,55,30,30.42,30.14,9,1,0,0.00
2013-4-19,75.8,63.6,52.4,62.8,57.7,44.7,96,82,58,30.14,29.65,11,2,15,0.00
2013-4-20,65.9,54.1,44.1,62.2,42.3,24.3,95,68,39,30.22,29.60,14,1,14,0.55
2013-4-21,53.4,43.0,33.8,29.0,23.8,19.2,73,48,27,30.68,30.22,11,1,0,0.00
2013-4-22,51.2,42.2,31.8,36.0,30.6,22.1,90,66,33,30.76,30.59,13,2,15,0.00
2013-4-23,42.4,41.2,40.1,40.7,38.2,31.4,95,89,70,30.59,30.12,10,1,0,0.11
2013-4-24,76.8,55.4,41.3,53.0,45.3,40.2,96,73,30,30.12,29.79,12,2,12,0.00
2013-4-25,65.1,55.3,45.1,52.3,37.9,26.3,93,57,25,30.26,29.83,11,1,13,0.04
2013-4-26,59.4,49.6,39.8,41.1,36.0,29.8,88,61,43,30.42,30.26,12,1,12,0.00
2013-4-27,65.5,51.9,36.9,43.0,37.5,34.1,96,62,33,30.42,30.28,7,0,0,0.00
2013-4-28,70.5,55.1,38.5,41.6,36.3,28.3,91,54,27,30.34,30.21,11,1,0,0.00
2013-4-29,71.7,57.5,45.5,47.4,38.2,24.8,90,54,26,30.28,30.19,7,1,0,0.00
2013-4-30,71.0,56.6,43.4,40.0,31.1,18.8,80,43,16,30.37,30.25,9,0,0,0.00
2013-5-1,69.8,55.0,37.5,39.9,34.7,29.4,88,51,25,30.47,30.36,9,0,0,0.00
2013-5-2,78.0,55.8,42.5,47.7,41.6,35.4,92,64,26,30.48,30.35,11,1,13,0.00
2013-5-3,60.8,50.2,43.0,45.0,41.2,38.6,88,72,54,30.52,30.37,10,1,0,0.00
2013-5-4,58.6,48.3,38.6,46.3,40.0,36.3,95,75,50,30.37,30.31,10,1,0,0.00
2013-5-5,60.2,47.7,36.4,42.0,39.1,34.8,96,74,49,30.33,30.25,11,1,0,0.00
2013-5-6,70.0,51.7,37.8,50.4,44.5,35.9,96,79,45,30.30,30.15,8,0,0,0.00
2013-5-7,80.0,62.6,43.9,59.4,51.5,42.0,96,70,44,30.18,30.08,8,0,0,0.00
2013-5-8,72.2,62.5,52.1,63.5,57.9,50.1,96,86,61,30.19,30.04,9,0,0,0.46
2013-5-9,68.0,59.9,57.1,62.5,58.1,56.0,97,94,75,30.05,29.88,6,0,0,0.60
2013-5-10,80.7,66.4,54.5,60.6,57.1,53.7,97,75,40,29.95,29.88,7,0,0,0.00
2013-5-11,71.3,63.7,58.5,62.7,59.0,54.6,95,85,71,29.91,29.69,8,1,12,0.06
2013-5-12,72.5,61.5,50.4,59.8,51.9,31.6,96,74,42,29.81,29.56,13,0,13,0.05
2013-5-13,60.4,50.6,42.2,35.9,31.8,27.4,72,50,32,30.03,29.81,12,1,14,0.00
2013-5-14,60.4,50.1,39.3,36.2,32.4,29.0,77,52,33,30.05,29.97,9,1,0,0.00
2013-5-15,67.3,51.3,36.6,51.9,38.3,31.3,89,66,33,30.06,29.68,6,0,0,0.01
2013-5-16,70.6,67.1,61.7,40.4,36.7,34.6,43,33,29,29.79,29.73,4,0,0,0.00
2013-5-17,68.8,59.8,50.3,45.5,42.2,36.2,77,54,34,30.21,29.80,10,1,12,0.00
2013-5-18,73.0,59.7,44.4,48.9,44.6,38.1,94,62,30,30.30,30.21,11,0,0,0.00
2013-5-19,74.5,57.1,47.8,54.4,50.2,45.4,95,79,42,30.34,30.22,7,0,0,0.09
2013-5-20,82.3,67.7,55.5,66.8,60.7,54.1,97,81,55,30.22,29.90,6,0,0,0.03
2013-5-21,82.0,62.9,51.5,67.2,58.0,49.6,96,85,58,30.00,29.85,13,1,13,0.02
2013-5-22,67.2,56.5,50.5,61.4,53.6,48.8,96,90,75,30.05,29.88,8,0,0,0.04
2013-5-23,77.3,65.1,54.9,69.6,61.8,53.5,98,90,75,29.92,29.80,11,1,0,0.14
2013-5-24,71.2,62.6,49.3,67.0,60.8,47.9,97,94,80,29.82,29.65,8,0,0,0.46
2013-5-25,51.5,47.4,41.4,49.8,46.2,39.3,97,95,92,29.81,29.70,10,1,12,0.31
2013-5-26,59.6,48.5,39.4,43.6,40.2,37.6,95,75,48,30.10,29.72,15,1,16,0.04
2013-5-27,73.4,57.6,41.0,46.2,40.5,34.3,93,59,25,30.17,30.07,10,1,12,0.00
2013-5-28,75.0,60.4,43.3,54.2,47.1,41.4,95,65,36,30.23,30.15,7,0,0,0.00
2013-5-29,71.7,62.8,58.4,65.9,59.9,52.8,96,90,77,30.19,29.99,5,0,0,0.88
2013-5-30,88.2,77.8,63.0,70.7,66.8,61.8,97,71,50,30.07,29.99,10,0,0,0.00
2013-5-31,94.4,80.0,64.2,71.2,66.5,62.7,97,67,39,30.08,29.92,7,0,0,0.00
2013-6-1,93.7,79.9,66.2,69.5,66.2,61.8,87,65,40,29.97,29.84,7,0,0,0.00
2013-6-2,90.8,78.1,68.2,70.8,66.6,63.8,89,70,43,29.88,29.72,11,1,13,0.00
2013-6-3,77.7,69.2,62.5,68.6,63.8,45.1,95,84,53,29.84,29.74,5,0,0,0.37
2013-6-4,71.7,62.1,50.2,48.8,45.8,41.8,77,56,40,30.09,29.82,9,1,13,0.00
2013-6-5,77.1,63.4,49.5,52.2,47.8,43.6,89,59,34,30.19,30.08,8,0,0,0.00
2013-6-6,76.0,64.8,54.5,55.7,50.9,47.2,85,62,41,30.19,30.09,7,0,0,0.00
2013-6-7,59.8,55.9,53.8,56.7,54.2,51.8,97,94,85,30.11,29.80,9,1,0,1.63
2013-6-8,78.3,63.4,53.3,66.0,58.2,52.5,97,84,62,30.00,29.61,8,1,0,1.64
2013-6-9,81.0,68.9,56.4,58.8,56.7,53.5,95,68,44,30.15,30.00,10,0,0,0.00
2013-6-10,70.7,62.1,55.2,60.6,57.2,53.3,96,85,59,30.20,30.01,6,0,0,0.62
2013-6-11,63.5,58.7,56.2,59.4,56.9,55.1,97,94,85,30.02,29.56,11,0,0,1.05
2013-6-12,71.0,62.5,56.6,58.7,55.6,53.1,97,80,57,29.81,29.56,13,1,14,0.02
2013-6-13,66.4,57.2,51.1,59.5,53.9,49.3,96,89,73,29.82,29.67,5,0,0,0.81
2013-6-14,72.8,60.0,51.2,59.3,54.2,49.8,97,83,55,29.76,29.63,9,1,0,1.12
2013-6-15,79.8,67.3,54.5,55.0,49.7,43.9,92,57,30,29.93,29.76,9,1,0,0.00
2013-6-16,76.1,66.0,52.1,62.4,55.4,48.0,88,70,47,29.93,29.70,7,0,0,0.00
2013-6-17,87.0,70.0,58.7,65.1,60.5,56.4,96,75,40,29.90,29.76,11,0,13,0.17
2013-6-18,77.7,63.4,58.7,65.3,60.0,57.4,97,90,60,29.94,29.87,7,0,0,0.76
2013-6-19,75.9,64.3,55.2,57.8,53.7,48.2,97,71,42,30.14,29.90,8,0,0,0.02
2013-6-20,80.0,66.9,51.2,57.2,52.4,44.4,95,64,35,30.25,30.14,5,0,0,0.00
2013-6-21,85.6,71.6,57.5,65.3,59.6,53.3,86,68,45,30.25,30.17,5,0,0,0.00
2013-6-22,85.5,72.8,62.3,65.8,60.3,56.0,81,66,44,30.21,30.10,6,0,0,0.00
2013-6-23,90.8,76.8,64.9,73.8,65.5,56.9,81,69,54,30.16,29.99,8,1,0,0.00
2013-6-24,93.5,80.3,69.8,73.8,70.6,67.5,94,74,48,30.02,29.86,7,0,0,0.17
2013-6-25,92.2,79.0,67.6,72.2,69.0,66.1,96,74,47,29.91,29.71,7,0,0,0.00
2013-6-26,84.8,75.8,69.2,73.1,69.1,66.0,91,80,64,29.84,29.71,5,0,0,0.00
2013-6-27,73.1,66.4,62.7,66.9,63.8,60.9,96,92,80,29.86,29.75,6,0,0,0.04
2013-6-28,83.2,71.3,62.0,74.0,67.7,60.8,98,89,68,29.76,29.48,10,1,0,0.28
2013-6-29,84.5,75.4,70.9,71.9,69.1,66.5,94,82,60,29.72,29.50,10,1,0,0.00
2013-6-30,86.0,76.3,69.4,74.5,70.2,66.9,94,82,67,29.93,29.72,8,0,0,0.00
2013-7-1,82.1,75.4,71.3,76.7,72.1,69.6,96,90,78,30.07,29.92,10,0,0,0.07
2013-7-2,84.1,74.1,64.3,75.0,69.6,61.0,93,86,70,30.20,30.07,7,0,0,0.00
2013-7-3,90.5,75.5,63.6,75.4,69.0,60.9,94,81,58,30.19,30.12,5,0,0,0.00
2013-7-4,93.3,82.2,72.1,76.3,73.5,70.3,95,77,55,30.19,30.08,7,0,0,0.00
2013-7-5,94.4,84.1,75.5,77.2,73.9,71.4,89,73,52,30.15,30.02,7,0,0,0.00
2013-7-6,91.5,82.4,74.8,75.4,72.3,66.4,90,73,53,30.06,29.96,8,0,0,0.00
2013-7-7,92.5,79.5,69.9,77.4,71.3,66.1,92,77,56,30.01,29.89,4,0,0,0.00
2013-7-8,86.5,76.3,67.6,75.8,71.3,65.2,95,85,68,30.05,29.90,6,0,0,0.05
2013-7-9,74.2,69.1,65.3,68.3,65.5,63.6,96,89,81,30.10,30.03,3,0,0,0.00
2013-7-10,86.4,74.5,66.7,76.0,70.4,64.4,96,88,69,30.07,29.78,9,0,0,0.04
2013-7-11,81.3,75.2,71.0,75.3,72.1,68.5,97,90,77,29.91,29.77,5,0,0,0.14
2013-7-12,75.5,70.9,67.0,69.3,62.2,55.8,94,75,57,30.19,29.91,7,1,0,0.00
2013-7-13,77.1,70.7,66.3,70.5,66.5,62.5,94,87,78,30.30,30.18,4,0,0,0.00
2013-7-14,92.0,79.4,69.9,74.5,71.8,68.1,97,79,49,30.30,30.19,7,0,0,0.00
2013-7-15,92.1,80.4,70.5,75.4,72.3,69.0,97,78,53,30.19,30.08,5,0,0,0.00
2013-7-16,94.5,81.5,71.3,72.8,69.3,66.2,93,68,45,30.15,30.09,6,0,0,0.00
2013-7-17,95.8,82.7,71.1,74.8,71.4,68.0,92,71,41,30.16,29.99,7,0,0,0.00
2013-7-18,92.3,83.1,75.5,75.9,72.8,68.9,88,72,47,29.99,29.92,7,0,0,0.00
2013-7-19,98.4,86.0,75.4,78.2,75.0,71.5,93,72,45,29.93,29.70,9,1,15,0.00
2013-7-20,94.0,84.3,77.0,78.8,74.2,65.6,89,73,49,29.79,29.63,7,0,0,0.00
2013-7-21,83.7,75.7,69.7,68.8,65.4,61.5,91,71,55,29.97,29.80,7,0,0,0.00
2013-7-22,82.7,73.2,66.5,70.6,67.4,64.8,96,83,63,30.00,29.87,7,0,0,0.00
2013-7-23,81.0,72.6,69.7,77.4,70.9,66.8,97,94,81,29.87,29.53,5,0,0,1.39
2013-7-24,84.7,76.0,67.9,74.2,68.1,55.8,98,78,55,29.94,29.57,7,0,0,0.00
2013-7-25,67.4,61.2,58.6,58.4,54.8,49.8,96,80,64,30.10,29.94,10,1,0,0.70
2013-7-26,71.2,64.4,59.2,67.8,62.3,58.1,97,93,87,30.06,29.93,8,0,0,0.74
2013-7-27,84.3,71.3,58.7,68.8,63.9,57.3,97,79,52,30.05,29.98,7,0,0,0.01
2013-7-28,82.0,71.8,65.6,72.3,67.7,63.5,96,87,71,30.01,29.95,6,0,0,0.03
2013-7-29,85.5,72.7,66.9,73.2,68.4,65.2,96,87,63,30.03,29.95,6,0,0,0.30
2013-7-30,83.0,71.8,59.8,67.3,61.0,56.6,97,72,42,30.09,30.02,8,0,0,0.00
2013-7-31,83.6,72.1,60.1,64.2,60.5,56.6,94,70,43,30.13,30.03,5,0,0,0.00
2013-8-1,82.7,71.3,62.6,67.1,63.2,60.4,95,77,53,30.05,29.87,9,0,0,0.00
2013-8-2,83.8,71.9,64.3,69.1,63.8,58.6,97,78,48,29.88,29.78,7,0,0,0.29
2013-8-3,78.8,70.8,64.3,66.0,63.4,60.6,93,78,59,29.86,29.77,6,0,0,0.00
2013-8-4,80.7,69.2,60.3,60.6,58.1,54.8,88,69,44,29.88,29.76,7,0,0,0.00
2013-8-5,77.4,65.1,54.9,55.6,50.1,42.6,89,62,31,30.04,29.88,9,1,0,0.00
2013-8-6,80.4,65.1,50.5,56.2,52.8,48.5,95,67,39,30.14,30.04,6,0,0,0.00
2013-8-7,82.3,68.4,55.9,61.4,56.0,49.9,96,68,38,30.18,30.10,6,0,0,0.00
2013-8-8,81.8,71.8,65.4,72.4,66.5,56.4,94,83,70,30.13,29.99,7,0,0,0.04
2013-8-9,74.8,72.5,71.1,73.9,70.8,68.8,97,95,91,30.02,29.74,11,0,0,1.30
2013-8-10,84.0,73.6,63.0,70.6,63.1,54.9,97,73,41,30.00,29.78,10,0,0,0.00
2013-8-11,80.2,67.8,54.5,59.6,55.9,51.8,96,68,43,30.08,29.99,7,0,0,0.00
2013-8-12,83.3,70.7,60.0,62.8,59.8,55.7,94,71,42,30.02,29.91,9,0,0,0.00
2013-8-13,76.0,68.7,64.4,67.8,64.2,61.5,93,86,69,29.92,29.68,6,0,0,0.00
2013-8-14,74.8,66.9,60.1,63.0,55.9,51.8,95,69,49,29.96,29.66,13,1,13,0.00
2013-8-15,78.2,65.5,54.1,55.4,53.0,50.1,90,67,41,30.11,29.96,7,0,0,0.00
2013-8-16,79.8,66.8,53.7,58.3,55.5,51.7,94,70,41,30.19,30.10,7,0,0,0.00
2013-8-17,80.0,68.1,55.6,62.3,58.1,53.7,95,72,49,30.27,30.19,6,0,0,0.00
2013-8-18,80.2,68.8,59.3,64.8,60.5,57.0,95,76,52,30.27,30.08,4,0,0,0.00
2013-8-19,81.9,70.6,58.0,64.6,60.6,56.2,95,73,47,30.08,29.94,5,0,0,0.00
2013-8-20,87.2,74.6,63.6,65.9,62.5,59.3,90,68,41,30.08,29.97,5,0,0,0.00
2013-8-21,89.0,74.9,61.0,68.0,64.3,59.1,95,72,45,30.14,30.01,5,0,0,0.00
2013-8-22,71.1,68.0,65.3,65.4,63.9,62.6,92,87,82,30.03,29.98,1,0,0,0.00
2013-8-23,74.4,68.9,63.6,58.5,55.9,49.9,79,64,55,30.12,29.98,5,0,0,0.00
2013-8-24,77.3,66.0,56.5,52.4,49.4,46.1,79,57,34,30.33,30.12,8,0,0,0.00
2013-8-25,84.5,68.0,51.1,57.7,53.3,48.0,95,64,29,30.36,30.18,6,0,0,0.00
2013-8-26,81.4,71.6,64.9,67.2,62.6,56.6,85,74,57,30.18,29.86,8,0,0,0.00
2013-8-27,82.7,72.7,66.4,70.9,67.4,64.0,96,84,64,29.89,29.82,5,0,0,0.07
2013-8-28,83.8,71.2,62.7,69.0,64.6,60.9,96,81,56,29.97,29.85,7,0,0,0.00
2013-8-29,66.5,64.3,61.8,64.1,61.4,57.7,95,91,85,30.07,29.94,7,0,0,0.01
2013-8-30,84.1,70.6,61.8,68.7,63.7,57.9,91,80,57,30.03,29.82,6,0,0,0.00
2013-8-31,80.7,74.1,68.1,73.7,70.4,66.4,96,89,78,29.83,29.78,5,0,0,0.01
2013-9-1,77.9,72.2,68.6,75.7,70.7,66.8,97,95,91,29.88,29.78,4,0,0,0.73
2013-9-2,81.3,74.1,69.5,75.5,71.6,68.6,97,92,77,29.87,29.70,8,0,12,0.12
2013-9-3,79.5,73.4,64.0,72.2,67.1,59.4,87,81,71,29.81,29.70,5,0,0,0.00
2013-9-4,81.3,68.9,57.8,61.8,58.0,55.7,95,71,45,29.91,29.80,8,0,0,0.00
2013-9-5,69.5,62.5,51.7,62.7,56.9,46.8,95,82,50,30.14,29.85,6,0,0,0.09
2013-9-6,70.0,57.4,44.7,48.0,44.8,39.7,93,66,37,30.24,30.09,6,0,0,0.00
2013-9-7,80.0,63.4,48.5,57.7,51.7,45.3,89,68,38,30.09,29.85,5,0,0,0.00
2013-9-8,75.0,64.8,51.0,62.2,52.9,41.1,90,68,39,30.09,29.74,14,1,14,0.00
2013-9-9,70.3,57.3,43.4,50.8,45.8,41.1,93,68,43,30.24,30.09,7,0,0,0.00
2013-9-10,75.4,66.3,54.7,70.2,62.2,50.4,95,87,82,30.16,30.03,8,0,0,0.05
2013-9-11,95.5,79.9,68.6,78.0,71.8,67.1,97,79,49,30.06,29.92,6,0,0,0.00
2013-9-12,87.5,77.3,68.4,75.5,70.7,66.9,95,81,61,29.96,29.66,10,1,0,0.70
2013-9-13,78.2,69.8,65.1,69.5,66.2,59.3,97,89,68,29.70,29.55,7,0,0,0.10
2013-9-14,66.4,60.9,52.4,55.7,52.7,49.8,91,75,66,30.06,29.88,6,0,0,0.00
2013-9-15,71.5,58.6,47.7,54.0,50.1,46.3,97,76,49,30.16,30.05,6,0,0,0.00
2013-9-16,66.5,57.7,49.1,56.5,50.7,39.1,92,78,62,30.25,30.01,10,0,0,0.02
2013-9-17,63.2,51.4,41.7,45.4,40.0,36.4,92,67,43,30.42,30.25,8,1,0,0.00
2013-9-18,74.1,56.5,41.1,50.0,45.4,39.6,97,71,34,30.33,30.14,5,0,0,0.00
2013-9-19,80.1,61.5,45.9,56.6,51.7,44.3,97,74,41,30.15,30.02,5,0,0,0.00
2013-9-20,80.2,59.8,49.3,58.9,53.0,47.8,97,81,39,30.08,29.99,5,0,0,0.00
2013-9-21,74.4,68.1,55.7,65.8,63.3,54.0,97,85,64,30.02,29.72,7,0,0,0.00
2013-9-22,70.3,64.3,53.0,67.0,57.8,46.6,96,80,55,29.83,29.60,4,1,13,0.54
2013-9-23,63.4,53.3,45.4,46.8,43.1,40.0,85,69,52,30.00,29.82,8,1,0,0.00
2013-9-24,66.9,53.6,43.0,46.7,43.0,39.2,88,69,44,30.00,29.81,8,1,0,0.00
2013-9-25,66.1,54.7,43.8,51.2,47.3,42.2,95,77,57,29.98,29.88,6,0,0,0.00
2013-9-26,65.1,57.4,53.2,52.7,49.3,46.5,89,75,58,30.12,29.98,6,0,0,0.00
2013-9-27,64.3,57.9,49.2,54.5,51.4,47.3,93,80,64,30.26,30.12,7,0,0,0.00
2013-9-28,72.2,57.0,46.9,57.4,51.1,45.5,97,83,56,30.33,30.25,9,0,0,0.00
2013-9-29,65.9,52.6,45.8,50.3,47.2,44.5,97,84,50,30.27,30.12,6,0,0,0.00
2013-9-30,67.1,55.4,48.3,52.8,50.2,46.6,97,84,55,30.13,29.96,6,0,0,0.00
2013-10-1,76.7,59.3,45.8,56.0,51.1,44.5,97,77,45,29.96,29.84,6,0,0,0.00
2013-10-2,79.1,64.7,51.7,62.2,57.3,50.3,97,79,55,29.94,29.82,12,0,12,0.00
2013-10-3,76.3,62.8,50.3,57.0,51.6,47.5,96,71,39,30.08,29.94,4,0,0,0.00
2013-10-4,62.6,57.7,50.8,58.9,54.5,48.7,95,89,76,30.08,30.03,2,0,0,0.11
2013-10-5,68.3,61.8,57.4,59.7,57.4,55.4,97,86,69,30.12,30.05,4,0,0,0.00
2013-10-6,60.7,57.1,54.9,58.2,55.8,53.6,97,95,89,30.22,30.11,5,0,0,0.36
2013-10-7,75.8,65.8,57.0,70.9,63.2,55.4,98,92,79,30.12,29.82,13,1,15,0.07
2013-10-8,64.8,57.3,46.6,55.4,46.0,40.8,83,67,43,30.37,29.90,8,0,0,0.00
2013-10-9,60.0,50.9,43.0,47.2,43.8,40.6,93,78,56,30.47,30.36,10,0,0,0.00
2013-10-10,62.0,52.0,42.9,53.5,48.4,41.8,97,88,73,30.37,30.18,6,0,0,0.00
2013-10-11,67.7,57.1,50.4,56.7,50.9,47.0,96,81,51,30.18,30.09,7,0,0,0.00
2013-10-12,59.7,54.4,47.8,56.1,51.7,46.0,96,91,84,30.39,30.14,11,0,12,0.01
2013-10-13,59.5,51.4,41.3,50.1,46.5,39.7,96,84,64,30.44,30.37,7,0,0,0.00
2013-10-14,62.2,48.7,35.6,49.0,42.0,34.3,97,80,43,30.41,30.25,3,0,0,0.00
2013-10-15,67.3,56.0,47.2,54.4,50.2,45.6,96,82,59,30.27,30.18,5,0,0,0.00
2013-10-16,57.2,50.7,47.2,54.3,49.3,45.6,97,95,90,30.18,30.07,5,0,0,0.00
2013-10-21,63.1,55.3,49.3,44.6,43.6,42.0,82,66,47,30.04,30.00,3,0,0,0.00
2013-10-22,67.3,53.9,42.5,53.3,46.4,39.2,96,77,54,30.00,29.70,6,0,0,0.00
2013-10-23,51.4,45.1,36.5,39.0,36.4,33.8,93,73,53,29.80,29.59,5,0,0,0.00
2013-10-24,52.5,44.7,37.7,36.7,31.7,25.9,83,62,39,29.89,29.64,10,0,0,0.00
2013-10-25,49.0,40.3,31.7,35.8,30.0,27.0,92,68,47,30.16,29.89,10,0,0,0.00
2013-10-26,54.3,42.3,29.9,38.0,31.2,27.6,93,68,36,30.16,29.88,10,0,0,0.00
2013-10-27,53.6,47.1,39.6,40.4,35.9,30.0,91,67,44,30.07,29.82,10,1,0,0.02
2013-10-28,57.2,44.4,32.4,37.1,32.4,25.8,91,65,43,30.36,30.06,9,1,12,0.02
2013-10-29,47.4,37.6,29.2,33.0,27.3,21.7,91,68,38,30.45,30.35,7,0,0,0.00
2013-10-30,52.2,40.2,31.5,43.8,36.5,29.3,93,87,67,30.37,30.20,7,0,0,0.03
2013-10-31,61.8,48.6,33.5,59.3,46.4,32.0,97,92,83,30.25,29.80,9,0,0,0.03
2013-11-1,69.9,63.5,58.0,63.5,58.6,53.8,96,84,70,29.79,29.45,12,1,12,0.08
2013-11-2,65.5,55.6,47.0,53.9,46.4,41.2,96,74,42,29.73,29.58,5,0,0,0.08
2013-11-3,51.5,41.8,32.5,47.7,31.2,16.4,90,68,41,30.42,29.72,9,1,0,0.01
2013-11-4,41.6,33.1,26.3,23.9,20.2,15.9,87,61,36,30.71,30.42,9,0,0,0.00
2013-11-5,48.8,37.0,24.9,33.5,28.1,22.0,92,72,48,30.73,30.52,5,0,0,0.00
2013-11-6,59.7,49.7,38.3,49.8,41.8,33.2,89,75,53,30.52,30.04,7,0,0,0.00
2013-11-7,66.2,53.4,38.6,58.2,50.0,34.2,95,88,72,30.04,29.67,12,0,14,0.22
2013-11-8,47.9,39.3,32.4,35.8,28.9,22.9,85,67,50,30.10,29.82,14,1,14,0.01
2013-11-9,44.7,37.9,28.2,30.0,25.8,23.2,84,62,44,30.22,30.04,11,0,0,0.00
2013-11-10,55.7,45.6,40.0,44.4,37.1,29.9,95,73,54,30.04,29.74,12,0,14,0.04
2013-11-11,50.9,44.7,38.5,34.2,29.9,26.0,67,57,39,30.10,29.86,13,1,13,0.00
2013-11-12,47.6,35.3,27.0,39.7,26.7,17.1,93,71,57,30.20,29.90,12,1,13,0.14
2013-11-13,35.9,28.8,23.6,18.5,16.3,13.4,75,60,43,30.29,30.17,9,0,0,0.00
2013-11-14,50.0,38.5,27.8,27.2,22.2,17.1,67,53,36,30.18,30.04,9,0,0,0.00
2013-11-15,61.3,45.4,32.4,34.6,24.8,19.4,71,47,22,30.20,30.10,5,0,0,0.00
2013-11-16,59.4,45.7,36.7,34.3,30.4,24.5,83,58,27,30.32,30.19,4,0,0,0.00
2013-11-17,59.3,47.5,33.4,56.3,43.4,30.4,97,86,68,30.32,29.83,4,0,0,0.03
2013-11-18,65.1,58.7,47.2,61.2,48.9,33.6,97,72,45,29.83,29.52,11,1,13,0.16
2013-11-19,47.3,39.8,31.0,33.9,23.8,17.4,61,53,43,30.28,29.65,13,2,14,0.00
2013-11-20,40.8,32.2,24.9,19.1,16.6,13.7,74,53,34,30.63,30.28,10,1,13,0.00
2013-11-21,47.5,34.8,21.8,30.2,22.0,16.6,85,62,36,30.65,30.38,5,0,0,0.00
2013-11-22,46.5,43.7,38.9,45.4,41.1,30.0,97,91,71,30.38,29.82,2,0,0,0.17
2013-11-23,47.0,40.4,29.6,46.2,28.3,16.8,97,63,40,29.91,29.78,13,1,13,0.00
2013-11-24,29.6,24.1,20.2,19.6,5.9,-2.6,75,46,28,30.20,29.79,19,3,25,0.00
2013-11-25,32.6,24.7,16.6,18.5,5.4,-3.0,61,44,23,30.37,30.20,12,1,12,0.00
2013-11-26,41.0,36.6,30.2,39.7,24.7,18.3,95,63,47,30.33,30.03,12,0,12,0.11
2013-11-27,60.9,47.0,37.4,60.0,45.5,33.6,97,95,87,30.03,29.20,15,1,15,0.97
2013-11-28,37.3,31.0,24.8,33.8,18.4,9.7,87,60,41,30.44,29.45,19,2,19,0.97
2013-11-29,33.3,27.3,21.6,17.4,12.8,3.8,73,55,35,30.75,30.43,10,1,0,0.00
2013-11-30,33.5,25.2,16.1,23.8,15.6,9.2,78,67,55,30.80,30.43,5,0,0,0.00
2013-12-1,38.8,35.0,31.1,37.5,32.4,23.8,96,90,74,30.43,30.01,4,0,0,0.12
2013-12-2,39.2,37.2,35.9,38.4,36.3,35.1,97,97,95,30.01,29.92,4,0,0,0.01
2013-12-3,47.6,38.3,33.6,38.1,34.6,30.8,97,87,61,29.95,29.85,8,0,0,0.01
2013-12-4,43.7,35.5,28.8,31.4,29.5,27.0,95,80,58,30.20,29.95,6,0,0,0.01
2013-12-5,54.4,42.8,30.4,53.5,39.6,28.1,97,89,76,30.22,29.92,6,0,0,0.00
2013-12-6,55.9,49.0,34.0,54.8,45.9,32.5,97,89,73,30.13,29.85,7,0,0,0.26
2013-12-7,38.8,33.2,26.8,33.2,28.5,22.2,96,83,64,30.45,30.07,9,0,0,0.09
2013-12-8,30.8,28.2,22.5,22.0,18.1,15.6,85,66,56,30.60,30.45,5,0,0,0.09
2013-12-9,38.6,32.8,26.1,37.6,30.7,15.9,97,92,57,30.50,29.89,6,0,0,0.17
2013-12-10,33.6,30.7,24.5,32.6,28.9,18.8,97,93,77,30.00,29.78,5,0,0,0.01
2013-12-11,30.6,25.4,21.5,22.3,19.6,17.5,85,78,66,30.22,30.00,9,1,0,0.01
2013-12-12,24.0,20.4,14.3,18.4,9.9,3.9,87,65,44,30.28,30.08,11,0,12,0.00
2013-12-13,29.4,21.9,14.4,17.4,12.5,4.5,79,67,55,30.40,30.01,13,1,13,0.00
2013-12-14,30.0,16.3,10.7,28.7,8.0,-2.4,95,70,52,30.62,30.14,10,1,0,0.00
2013-12-15,34.4,28.0,22.3,33.4,26.2,20.5,96,93,85,30.15,29.42,13,1,14,0.00
2013-12-16,27.5,23.7,17.0,22.4,15.0,8.9,89,70,51,30.21,29.75,9,1,12,0.00
2013-12-17,20.2,14.4,6.5,18.3,9.8,0.0,93,82,67,30.30,29.96,7,0,0,0.00
2013-12-18,33.7,24.8,16.3,23.5,19.8,13.9,91,82,63,30.08,29.87,11,1,0,0.00
2013-12-19,41.7,32.7,23.9,28.8,25.0,19.6,85,74,56,30.12,29.96,14,0,14,0.05
2013-12-20,52.2,41.2,32.1,38.8,33.2,27.8,87,74,57,30.12,29.91,4,0,0,0.72
2013-12-21,56.5,48.3,41.4,48.4,43.2,35.1,92,83,73,29.95,29.86,5,0,0,0.03
2013-12-22,54.0,43.3,35.0,52.8,41.9,34.0,97,95,91,30.03,29.78,10,0,0,0.01
2013-12-23,36.8,34.1,32.4,36.0,33.3,31.6,97,97,96,30.10,29.94,5,0,0,0.56
2013-12-24,36.6,32.5,26.8,35.8,23.2,17.3,97,69,54,30.20,30.05,10,1,0,0.56
2013-12-25,26.8,19.4,14.8,18.9,7.4,2.1,77,59,46,30.55,30.20,13,1,15,0.00
2013-12-26,33.9,26.0,16.2,30.7,21.8,10.4,93,84,71,30.51,30.09,5,0,0,0.00
2013-12-27,33.9,27.9,22.5,23.3,21.3,19.2,89,77,61,30.28,30.19,8,0,0,0.04
2013-12-28,46.1,34.0,24.7,30.1,25.8,20.9,86,73,50,30.22,29.99,8,0,0,0.04
2013-12-29,42.8,36.3,30.0,39.4,32.7,25.7,96,87,69,30.04,29.40,7,0,13,1.17
2013-12-30,40.4,32.5,19.7,35.5,24.6,10.2,96,74,45,30.16,29.51,5,1,12,1.17
2013-12-31,25.8,19.4,14.1,15.7,7.7,-2.1,77,60,47,30.19,30.02,8,1,0,0.00
2014-1-1,27.2,21.9,15.6,14.3,10.2,7.3,75,61,47,30.38,30.19,8,0,0,0.00
2014-1-2,22.4,13.1,1.3,16.4,9.7,-1.7,89,86,65,30.36,29.84,13,2,13,0.00